STARLINK-5144 (54072 NORAD) Tracking and Keplerian Element Data

This shows tracking and keplerian element data for the satellite.

Feedback or suggestion? Click here.




ElementValue
Catalog54072
NameSTARLINK-5144
Epoch Orbit548
Epoch Day325.33334491
Epoch Year2022
RAAN352.6522
Inclination53.2171
Eccentricity0.0001554
Argument of Perigee50.9537
Mean Anonmoly139.884
Mean Motion15.4625875
Decay Rate-0.01023134
L11 54072U 22136X 22325.33334491 -.01023134 00000+0 -22475-1 0 9992
L22 54072 53.2171 352.6522 0001554 50.9537 139.8840 15.46258750 5481



Live tracking and technical data element details for STARLINK-5144 (NORAD 54072). STARLINK-5144 can be tracked NOW for your location showing map with azimuth and elevation plus other details from your city location.







IsCatalogInMostPopularTable: catalog: 54072, numindb: 2
Update: records affected: 1



GetName: 54072 STARLINK-5144

Hit Count: updated at: Fri, 09 Dec 2022 20:20:30 GMT